Date String (YYYY-MM-DD hh:mm:ss) UTC,Instrument flags,Ambient pressure (hPa),Sample flow (lpm),Bypass flow (lpm),Sample temperature (°C),Ambient temperature (°C),ASC tube jacket temperature (°C),LED temperature (°C),Box temperature (°C),Sample RH (%),Span deviation,Mass concentration (μg/m³),Mass concentration (μg/m³),Mass concentration (μg/m³)
DateTimeUTC,F1_M11,P_M11,Q1_M11,Q2_M11,T1_M11,T2_M11,T3_M11,T4_M11,T5_M11,U1_M11,ZSPAN_M11,X0_M11,X2_M11,X1_M11
2021-11-15 13:00:00,,0826.7,5.01,0.00,27.0,26.2,00.0,36.1,28.8,09.8,0000.0,0003.05,0000.45,0000.27
2021-11-15 13:01:00,,0826.7,5.00,0.00,27.0,26.2,00.0,36.1,28.8,09.9,0000.0,0003.04,0000.45,0000.27
2021-11-15 13:02:00,,0826.8,4.99,0.00,27.0,26.2,00.0,36.1,28.8,10.0,0000.0,0003.13,0000.49,0000.28
2021-11-15 13:03:00,,0827.0,5.01,0.00,27.0,26.2,00.0,36.1,28.8,10.0,0000.0,0002.44,0000.56,0000.28
2021-11-15 13:04:00,,0826.7,5.01,0.00,27.0,26.2,00.0,36.0,28.7,10.0,0000.0,0002.70,0000.61,0000.30
2021-11-15 13:05:00,,0826.7,4.99,0.00,27.0,26.2,00.0,36.0,28.8,10.0,0000.0,0002.66,0000.63,0000.30
2021-11-15 13:06:00,,0826.8,5.00,0.00,27.0,26.2,00.0,36.0,28.9,10.1,0000.0,0001.56,0000.62,0000.30
2021-11-15 13:07:00,,0826.9,4.98,0.00,27.0,26.2,00.0,36.0,28.8,10.4,0000.0,0001.56,0000.62,0000.31
2021-11-15 13:08:00,,0826.9,5.01,0.00,27.0,26.2,00.0,36.0,28.8,10.9,0000.0,0001.54,0000.62,0000.31
2021-11-15 13:09:00,,0826.8,5.00,0.00,27.0,26.2,00.0,36.0,28.7,10.6,0000.0,0001.54,0000.62,0000.32
2021-11-15 13:10:00,,0826.8,5.00,0.00,27.0,26.2,00.0,36.1,28.8,10.4,0000.0,0001.49,0000.60,0000.33
2021-11-15 13:11:00,,0826.8,4.99,0.00,27.0,26.2,00.0,36.1,28.8,10.4,0000.0,0001.47,0000.58,0000.32
2021-11-15 13:12:00,,0827.0,5.00,0.00,27.0,26.2,00.0,36.0,28.8,10.6,0000.0,0001.42,0000.57,0000.32
2021-11-15 13:13:00,,0827.0,4.99,0.00,27.0,26.2,00.0,36.0,28.8,11.0,0000.0,0001.26,0000.54,0000.33
2021-11-15 13:14:00,,0826.8,5.00,0.00,27.0,26.1,00.0,36.0,28.8,11.0,0000.0,0000.96,0000.48,0000.33
2021-11-15 13:15:00,,0827.0,4.99,0.00,27.0,26.1,00.0,36.0,28.7,11.0,0000.0,0000.64,0000.43,0000.33
2021-11-15 13:16:00,,0827.1,5.00,0.00,26.9,26.1,00.0,36.0,28.7,10.7,0000.0,0000.59,0000.43,0000.34
2021-11-15 13:17:00,,0827.0,5.00,0.00,26.9,26.1,00.0,36.0,28.7,10.5,0000.0,0000.57,0000.43,0000.34
2021-11-15 13:18:00,,0827.1,5.00,0.00,26.9,26.1,00.0,36.0,28.7,10.6,0000.0,0000.60,0000.45,0000.35
2021-11-15 13:19:00,,0827.1,5.00,0.00,26.9,26.1,00.0,36.0,28.7,10.9,0000.0,0000.59,0000.45,0000.34
2021-11-15 13:20:00,,0827.2,5.01,0.00,26.9,26.2,00.0,36.0,28.7,10.7,0000.0,0000.69,0000.46,0000.34
2021-11-15 13:21:00,,0826.9,5.00,0.00,26.9,26.2,00.0,36.0,28.7,10.7,0000.0,0000.75,0000.48,0000.35
2021-11-15 13:22:00,,0827.2,5.01,0.00,27.0,26.2,00.0,36.0,28.7,10.5,0000.0,0000.68,0000.45,0000.35
2021-11-15 13:23:00,,0827.1,5.00,0.00,27.0,26.2,00.0,36.0,28.7,10.5,0000.0,0000.70,0000.46,0000.35
2021-11-15 13:24:00,,0827.1,5.00,0.00,27.0,26.3,00.0,36.0,28.8,10.6,0000.0,0000.68,0000.44,0000.35
2021-11-15 13:25:00,,0827.2,5.01,0.00,27.0,26.3,00.0,36.0,28.8,10.6,0000.0,0000.66,0000.43,0000.35
2021-11-15 13:26:00,,0827.2,5.00,0.00,27.0,26.3,00.0,36.0,28.8,10.8,0000.0,0000.68,0000.44,0000.35
2021-11-15 13:27:00,,0827.0,5.01,0.00,27.0,26.3,00.0,36.0,28.8,10.8,0000.0,0001.19,0000.43,0000.34
2021-11-15 13:28:00,,0827.0,5.00,0.00,27.0,26.3,00.0,36.0,28.8,10.5,0000.0,0001.23,0000.42,0000.34
2021-11-15 13:29:00,,0827.1,4.99,0.00,27.0,26.3,00.0,36.0,28.8,10.3,0000.0,0001.20,0000.40,0000.34
2021-11-15 13:30:00,,0827.0,5.02,0.00,27.0,26.3,00.0,36.0,28.8,10.3,0000.0,0001.30,0000.44,0000.34
2021-11-15 13:31:00,,0827.0,5.01,0.00,27.0,26.3,00.0,36.0,28.9,10.3,0000.0,0001.24,0000.44,0000.34
2021-11-15 13:32:00,,0827.2,4.99,0.00,27.0,26.3,00.0,36.0,28.8,10.1,0000.0,0001.24,0000.45,0000.34
2021-11-15 13:33:00,,0827.2,4.99,0.00,27.0,26.3,00.0,36.0,28.8,10.1,0000.0,0001.25,0000.45,0000.34
2021-11-15 13:34:00,,0827.1,5.00,0.00,27.0,26.3,00.0,36.0,28.8,10.2,0000.0,0001.23,0000.44,0000.33
2021-11-15 13:35:00,,0827.2,5.01,0.00,27.0,26.3,00.0,36.0,28.8,10.4,0000.0,0001.28,0000.47,0000.33
2021-11-15 13:36:00,,0827.1,4.99,0.00,27.0,26.3,00.0,36.0,28.7,10.2,0000.0,0001.28,0000.47,0000.33
2021-11-15 13:37:00,,0827.0,4.99,0.00,27.0,26.3,00.0,36.0,28.7,10.0,0000.0,0001.30,0000.47,0000.33
2021-11-15 13:38:00,,0827.0,5.00,0.00,27.0,26.2,00.0,36.0,28.7,09.9,0000.0,0000.76,0000.47,0000.33
2021-11-15 13:39:00,,0826.9,5.00,0.00,27.0,26.2,00.0,36.0,28.7,09.9,0000.0,0000.94,0000.54,0000.32
2021-11-15 13:40:00,,0827.0,5.00,0.00,27.0,26.2,00.0,36.0,28.8,09.7,0000.0,0001.02,0000.58,0000.32
2021-11-15 13:41:00,,0826.9,5.00,0.00,27.0,26.2,00.0,36.0,28.7,09.7,0000.0,0001.10,0000.57,0000.31
2021-11-15 13:42:00,,0826.9,4.99,0.00,27.0,26.2,00.0,36.0,28.7,09.8,0000.0,0001.14,0000.58,0000.31
2021-11-15 13:43:00,,0826.9,5.00,0.00,27.0,26.2,00.0,36.0,28.8,09.6,0000.0,0001.19,0000.59,0000.31
2021-11-15 13:44:00,,0826.9,5.00,0.00,27.0,26.2,00.0,36.0,28.7,09.6,0000.0,0001.21,0000.60,0000.31
2021-11-15 13:45:00,,0827.0,5.00,0.00,27.0,26.2,00.0,36.0,28.8,09.7,0000.0,0001.20,0000.60,0000.32
2021-11-15 13:46:00,,0826.9,5.00,0.00,27.1,26.2,00.0,36.1,28.8,09.7,0000.0,0001.26,0000.58,0000.32
2021-11-15 13:47:00,,0826.9,5.00,0.00,27.1,26.2,00.0,36.1,28.8,09.3,0000.0,0001.27,0000.57,0000.31
2021-11-15 13:48:00,,0826.8,5.02,0.00,27.1,26.3,00.0,36.1,28.8,09.4,0000.0,0002.43,0000.57,0000.32
2021-11-15 13:49:00,,0826.9,5.01,0.00,27.1,26.3,00.0,36.1,28.8,09.3,0000.0,0002.59,0000.57,0000.32
2021-11-15 13:50:00,,0826.9,4.99,0.00,27.1,26.3,00.0,36.1,28.8,09.4,0000.0,0002.47,0000.54,0000.32
2021-11-15 13:51:00,,0826.9,5.00,0.00,27.1,26.3,00.0,36.1,28.8,09.3,0000.0,0002.43,0000.51,0000.32
2021-11-15 13:52:00,,0827.1,5.00,0.00,27.1,26.2,00.0,36.1,28.8,09.2,0000.0,0002.31,0000.50,0000.32
2021-11-15 13:53:00,,0827.1,5.01,0.00,27.1,26.2,00.0,36.1,28.8,09.3,0000.0,0002.25,0000.49,0000.32
2021-11-15 13:54:00,,0827.0,4.99,0.00,27.1,26.3,00.0,36.1,28.9,09.4,0000.0,0002.28,0000.48,0000.32
2021-11-15 13:55:00,,0827.2,4.99,0.00,27.1,26.3,00.0,36.1,28.8,09.4,0000.0,0002.61,0000.49,0000.31
2021-11-15 13:56:00,,0827.0,5.00,0.00,27.1,26.3,00.0,36.1,28.8,09.2,0000.0,0002.84,0000.50,0000.31
2021-11-15 13:57:00,,0827.1,5.00,0.00,27.1,26.3,00.0,36.1,28.9,09.2,0000.0,0002.78,0000.50,0000.30
2021-11-15 13:58:00,,0827.1,5.00,0.00,27.1,26.3,00.0,36.1,28.9,09.4,0000.0,0002.89,0000.53,0000.31
2021-11-15 13:59:00,,0827.6,5.00,0.00,27.1,26.3,00.0,36.1,28.9,10.0,0000.0,0001.68,0000.54,0000.30
